Location: Clanezzo
(45.7500°N, 9.6000°E)
Time: 11:50:24
(UTC+00:00)

Courier 1B - All Passes

Search period start: 28 May 2022 00:00
Search period end: 07 June 2022 00:00
Orbit: 962 x 1209 km, 28.3° (Epoch: 27 May)

Date Brightness Start Highest point End Pass type
(mag) Time Alt. Az. Time Alt. Az. Time Alt. Az.
28 May - 17:09:29 10° SSW 17:13:45 16° SSE 17:17:54 10° SE daylight
28 May - 19:01:49 10° SW 19:06:42 19° S 19:11:26 10° SE daylight
28 May - 20:56:20 10° SW 20:59:33 13° SSW 21:02:41 10° S visible
29 May - 16:16:28 10° SSW 16:20:10 14° SSE 16:23:48 10° SE daylight
29 May - 18:08:04 10° SW 18:13:08 19° S 18:18:01 10° SE daylight
29 May - 20:01:55 10° SW 20:06:03 16° SSW 20:10:04 10° SSE visible
30 May - 15:23:58 10° S 15:26:35 12° SSE 15:29:12 10° SE daylight
30 May - 17:14:29 10° SW 17:19:32 19° S 17:24:26 10° SE daylight
30 May - 19:07:48 10° SW 19:12:31 18° S 19:17:05 10° SSE daylight
31 May - 16:21:02 10° SSW 16:25:55 18° S 16:30:42 10° SE daylight
31 May - 18:13:50 10° SW 18:18:56 19° S 18:23:53 10° SE daylight
31 May - 20:08:59 10° SW 20:11:47 12° SSW 20:14:32 10° S visible
01 Jun - 15:27:48 10° SSW 15:32:18 16° SSE 15:36:45 10° SE daylight
01 Jun - 17:20:01 10° SW 17:25:20 20° S 17:30:30 10° SE daylight
01 Jun - 19:14:16 10° SW 19:18:16 15° SSW 19:22:09 10° SSE daylight
02 Jun - 14:34:54 10° SSW 14:38:42 14° SSE 14:42:29 10° SE daylight
02 Jun - 16:26:19 10° SW 16:31:42 20° S 16:36:58 10° SE daylight
02 Jun - 18:20:00 10° SW 18:24:43 18° SSW 18:29:18 10° SSE daylight
03 Jun - 13:42:36 10° S 13:45:07 12° SSE 13:47:37 10° SE daylight
03 Jun - 15:32:47 10° SW 15:38:03 20° S 15:43:15 10° SE daylight
03 Jun - 17:25:56 10° SW 17:31:06 19° S 17:36:10 10° SE daylight
03 Jun - 19:21:58 10° SW 19:23:57 11° SSW 19:25:55 10° S daylight
04 Jun - 14:39:27 10° SSW 14:44:25 18° SSE 14:49:22 10° SE daylight
04 Jun - 16:32:03 10° SW 16:37:29 21° S 16:42:49 10° SE daylight
04 Jun - 18:26:46 10° SW 18:30:25 14° SSW 18:34:01 10° S daylight
05 Jun - 13:46:22 10° SSW 13:50:47 16° SSE 13:55:14 10° SE daylight
05 Jun - 15:38:18 10° SW 15:43:50 21° S 15:49:18 10° SE daylight
05 Jun - 17:32:19 10° SW 17:36:51 17° SSW 17:41:19 10° SSE daylight
06 Jun - 12:53:40 10° S 12:57:12 14° SSE 13:00:45 10° SE daylight
06 Jun - 14:44:44 10° SW 14:50:10 21° S 14:55:36 10° SE daylight
06 Jun - 16:38:09 10° SW 16:43:14 19° S 16:48:15 10° SSE daylight
